Location: Ravensburg
(47.7866°N, 9.6124°E)
Time: 10:05:44
(UTC+02:00)

METEOR M2 - Pass Details

Date: 15 March 2026
Orbit: 817 x 824 km, 98.5° (Epoch: 18 April)

Event Time Altitude Azimuth Distance (km) Brightness Sun altitude
Rises 03:59:32 0° 21° (NNE) 3,372 ? -26.0°
Reaches altitude 10° 04:02:08 10° 31° (NNE) 2,435 ? -25.7°
Maximum altitude 04:06:59 33° 95° (E) 1,356 ? -24.9°
Drops below altitude 10° 04:11:47 10° 159° (SSE) 2,417 ? -24.2°
Sets 04:14:21 0° 169° (S) 3,345 ? -23.8°
Enters shadow 04:14:31 -1° 169° (S) 3,408 ? -23.8°
